DW0835 Weather Reports


time (UTC)temp
F
wind
direction
speed
knots
gust
knots
rain 1hr
in
rain 24hr
in
rain mn
in
humidity
%
barometer
mb
20200407034530 43 0.0 0.0 0.00 0.00 0.00 84 1012.9
20200407033529 43 0.0 0.9 0.00 0.00 0.00 83 1013.3
20200407032529 43 0.0 0.9 0.00 0.00 0.00 82 1013.3
20200407031517 44 0.0 0.9 0.00 0.00 0.00 81 1013.3
20200407030529 44 0.0 0.0 0.00 0.00 0.00 80 1013.3
20200407025529 45 0.0 0.0 0.00 0.00 0.00 77 1013.4
20200407024518 46 0.0 0.0 0.00 0.00 0.00 74 1013.4
20200407023530 47 0.0 0.9 0.00 0.00 0.00 69 1013.5
20200407022517 48 0.0 0.0 0.00 0.00 0.00 61 1013.5
20200407021517 49 0.0 0.0 0.00 0.00 0.00 60 1013.5
20200407020530 49 0.0 0.0 0.00 0.00 0.00 59 1013.2
20200407015529 49 0.0 0.9 0.00 0.00 0.00 58 1013.1
20200407014529 49 0.0 0.0 0.00 0.00 0.00 58 1013.1
20200407013517 49 0.0 0.0 0.00 0.00 0.00 58 1013.1
20200407012529 49 0.0 0.0 0.00 0.00 0.00 58 1013.0
20200407011518 49 0.0 0.0 0.00 0.00 0.00 58 1012.9
20200407010517 50 0.0 0.0 0.00 0.00 0.00 58 1012.9
20200407005529 50 0.0 1.7 0.00 0.00 0.00 56 1012.9
20200407004529 50 0.0 0.9 0.00 0.00 0.00 55 1012.9
20200407003527 51 0.0 0.0 0.00 0.00 0.00 53 1012.8
20200407002529 51 0.0 0.0 0.00 0.00 0.00 52 1012.8
20200407001518 51 0.0 0.0 0.00 0.00 0.00 52 1012.8
20200407000518 51 0.0 0.0 0.00 0.00 0.00 52 1012.8
20200406235518 51 0.0 0.0 0.00 0.00 0.00 54 1012.8
20200406234529 51 0.0 0.0 0.00 0.00 0.00 53 1012.8
20200406233529 51 0.0 0.9 0.00 0.00 0.00 55 1012.8
20200406232527 51 0.0 0.9 0.00 0.00 0.00 58 1012.9
20200406231517 51 0.0 0.0 0.00 0.00 0.00 59 1012.9
20200406230521 52 0.0 0.9 0.00 0.00 0.00 60 1013.1
20200406225529 52 0.0 0.0 0.00 0.00 0.00 60 1013.0
20200406224531 52 0.0 0.0 0.00 0.00 0.00 60 1013.0
20200406223529 53 0.0 0.0 0.00 0.00 0.00 60 1013.4
20200406222531 53 0.0 0.0 0.00 0.00 0.00 60 1013.4
20200406221529 53 0.0 1.7 0.00 0.00 0.00 61 1013.4
20200406220518 53 0.0 0.0 0.00 0.00 0.00 61 1013.6
20200406215530 53 0.0 0.0 0.00 0.00 0.00 61 1013.5
20200406214530 53 0.0 0.0 0.00 0.00 0.00 62 1013.5
20200406213529 53 0.0 2.6 0.00 0.00 0.00 62 1013.6
20200406212531 53 0.0 1.7 0.00 0.00 0.00 61 1013.9
20200406211530 53 0.0 1.7 0.00 0.00 0.00 61 1013.9
20200406210530 54 0.0 2.6 0.00 0.00 0.00 62 1014.0
20200406205517 53 0.0 0.9 0.00 0.00 0.00 63 1014.1
20200406204519 54 0.0 0.9 0.00 0.00 0.00 63 1014.1
20200406203530 54 0.0 2.6 0.00 0.00 0.00 62 1014.5
20200406202530 53 0.0 1.7 0.00 0.00 0.00 64 1014.7
20200406201531 52 0.0 5.2 0.00 0.00 0.00 65 1014.6
20200406200519 52 0.0 1.7 0.00 0.00 0.00 66 1014.9
20200406195530 52 0.0 1.7 0.00 0.00 0.00 66 1015.1
20200406194531 52 0.0 2.6 0.00 0.00 0.00 66 1015.1
20200406193519 52 0.0 1.7 0.00 0.00 0.00 66 1015.3
20200406192530 53 0.0 0.9 0.00 0.00 0.00 65 1015.6
20200406191530 54 0.0 0.9 0.00 0.00 0.00 65 1015.6
20200406190518 55 0.0 5.2 0.00 0.00 0.00 62 1015.7
20200406185519 55 0.0 5.2 0.00 0.00 0.00 64 1015.9
20200406184519 55 0.0 1.7 0.00 0.00 0.00 63 1015.9
20200406183530 55 0.0 1.7 0.00 0.00 0.00 64 1015.7
20200406182517 54 0.0 4.3 0.00 0.00 0.00 66 1016.2
20200406181530 52 90 0.9 4.3 0.00 0.00 0.00 69 1016.2
20200406180530 50 0.0 0.9 0.00 0.00 0.00 73 1016.6
20200406175530 49 0.0 2.6 0.00 0.00 0.00 74 1016.6
20200406174530 48 90 0.9 4.3 0.00 0.00 0.00 76 1016.5
20200406173518 47 90 0.9 5.2 0.00 0.00 0.00 75 1016.8
20200406172530 47 0.0 2.6 0.00 0.00 0.00 76 1017.2
20200406171519 46 0.0 2.6 0.00 0.00 0.00 78 1017.2
20200406170530 46 90 0.9 3.5 0.00 0.00 0.00 77 1017.2
20200406165519 46 90 0.9 6.1 0.00 0.00 0.00 77 1017.6
20200406164530 46 90 0.9 2.6 0.00 0.00 0.00 77 1017.6
20200406163530 45 0.0 4.3 0.00 0.00 0.00 78 1017.6
20200406162519 46 0.0 1.7 0.00 0.00 0.00 78 1017.8
20200406161528 45 0.0 4.3 0.00 0.00 0.00 79 1017.8
20200406160530 45 90 0.9 4.3 0.00 0.00 0.00 79 1018.1
20200406155530 45 0.0 0.9 0.00 0.00 0.00 81 1018.3
20200406154519 43 0.0 4.3 0.00 0.00 0.00 82 1018.2
20200406153518 42 0.0 0.0 0.00 0.00 0.00 83 1018.6
20200406152529 42 0.0 0.9 0.00 0.00 0.00 84 1018.7
20200406151519 41 0.0 0.9 0.00 0.00 0.00 83 1018.7
20200406150530 41 90 0.9 2.6 0.00 0.00 0.00 83 1018.7
20200406145518 41 90 0.9 2.6 0.00 0.00 0.00 82 1018.6
20200406144518 42 0.0 2.6 0.00 0.00 0.00 82 1018.6
20200406143530 42 0.0 0.9 0.00 0.00 0.00 82 1018.7
20200406142518 42 0.0 1.7 0.00 0.00 0.00 80 1018.8
20200406141530 43 0.0 2.6 0.00 0.00 0.00 78 1018.8
20200406140529 44 0.0 0.9 0.00 0.00 0.00 80 1019.4
20200406135529 43 0.0 0.0 0.00 0.00 0.00 83 1019.3
20200406134518 42 0.0 0.0 0.00 0.00 0.00 85 1019.3
20200406133518 41 0.0 0.0 0.00 0.00 0.00 88 1019.3
20200406132530 40 0.0 0.0 0.00 0.00 0.00 90 1019.2
20200406131518 39 0.0 0.0 0.00 0.00 0.00 93 1019.2
20200406130529 37 0.0 0.0 0.00 0.00 0.00 93 1019.2
20200406125530 36 0.0 0.0 0.00 0.00 0.00 93 1019.4
20200406124529 35 0.0 0.0 0.00 0.00 0.00 94 1019.4
20200406123518 33 0.0 0.0 0.00 0.00 0.00 94 1019.2
20200406122518 32 0.0 0.0 0.00 0.00 0.00 93 1019.3
20200406121518 31 0.0 0.0 0.00 0.00 0.00 93 1019.3
20200406120518 31 0.0 0.0 0.00 0.00 0.00 92 1019.3
20200406115528 30 0.0 0.0 0.00 0.00 0.00 92 1019.3
20200406114518 30 0.0 0.0 0.00 0.00 0.00 92 1019.3
20200406113518 30 0.0 0.0 0.00 0.00 0.00 92 1019.0
20200406112518 30 0.0 0.0 0.00 0.00 0.00 92 1019.1
20200406111518 30 0.0 0.0 0.00 0.00 0.00 92 1019.1
20200406110518 31 0.0 0.0 0.00 0.00 0.00 92 1019.1
20200406105529 31 0.0 0.0 0.00 0.00 0.00 92 1019.1
20200406104529 31 0.0 0.0 0.00 0.00 0.00 92 1019.1
20200406103529 31 0.0 0.0 0.00 0.00 0.00 92 1019.1
20200406102529 31 0.0 0.0 0.00 0.00 0.00 92 1019.1
20200406101529 31 0.0 0.0 0.00 0.00 0.00 92 1019.1
20200406100529 31 0.0 0.0 0.00 0.00 0.00 92 1019.1
20200406095529 31 0.0 0.0 0.00 0.00 0.00 92 1019.1
20200406094517 31 0.0 0.0 0.00 0.00 0.00 92 1019.1
20200406093529 31 0.0 0.0 0.00 0.00 0.00 92 1019.1
20200406092529 31 0.0 0.0 0.00 0.00 0.00 92 1019.2
20200406090517 31 0.0 0.0 0.00 0.00 0.00 92 1019.1
20200406085518 31 0.0 0.0 0.00 0.00 0.00 92 1019.0
20200406084529 31 0.0 0.0 0.00 0.00 0.00 92 1019.0
20200406083529 31 0.0 0.0 0.00 0.00 0.00 92 1019.0
20200406082529 31 0.0 0.0 0.00 0.00 0.00 91 1019.1
20200406081529 31 0.0 0.0 0.00 0.00 0.00 92 1019.1
20200406080517 31 0.0 0.0 0.00 0.00 0.00 91 1019.2
20200406075517 31 0.0 0.0 0.00 0.00 0.00 92 1019.3
20200406074518 31 0.0 0.0 0.00 0.00 0.00 91 1019.4
20200406073529 31 0.0 0.0 0.00 0.00 0.00 91 1019.5
20200406072528 31 0.0 0.0 0.00 0.00 0.00 91 1019.6
20200406071517 31 0.0 0.0 0.00 0.00 0.00 91 1019.6
20200406070517 31 0.0 0.0 0.00 0.00 0.00 91 1019.6
20200406065517 31 0.0 0.0 0.00 0.00 0.00 91 1019.6
20200406064529 31 0.0 0.0 0.00 0.00 0.00 91 1019.6
20200406063531 31 0.0 0.0 0.00 0.00 0.00 91 1019.6
20200406062519 31 0.0 0.0 0.00 0.00 0.00 91 1019.9
20200406061519 32 0.0 0.0 0.00 0.00 0.00 91 1019.9
20200406060529 32 0.0 0.0 0.00 0.00 0.00 91 1020.1
20200406055517 32 0.0 0.0 0.00 0.00 0.00 90 1020.2
20200406054530 32 0.0 0.0 0.00 0.00 0.00 91 1020.2
20200406053519 32 0.0 0.0 0.00 0.00 0.00 91 1020.2
20200406052528 32 0.0 0.0 0.00 0.00 0.00 91 1020.2
20200406051517 32 0.0 0.0 0.00 0.00 0.00 91 1020.2
20200406050519 32 0.0 0.0 0.00 0.00 0.00 90 1020.4
20200406045551 32 0.0 0.0 0.00 0.00 0.00 90 1020.2
20200406044529 33 0.0 0.0 0.00 0.00 0.00 90 1020.2
20200406043529 33 0.0 0.0 0.00 0.00 0.00 90 1020.2
20200406042518 33 0.0 0.0 0.00 0.00 0.00 90 1020.5
20200406041518 33 0.0 0.0 0.00 0.00 0.00 90 1020.5
20200406040529 33 0.0 0.0 0.00 0.00 0.00 90 1020.6
20200406035529 33 0.0 0.0 0.00 0.00 0.00 89 1020.7